joomla templates top joomla templates template joomla

King Air Abend

Wetterbeurteilung mit Hilfe Webcam und ATIS

 

Webcam 1Webcam 2

(Zum vergrößern auf das Bild klicken)

Wetteranzeige

Aktuelles Platzwetter Stand 21.07.2019 08:43Z

AvgMin / Max
Windrichtung250 Deg230 / 300 Deg
Windgeschwindigkeit6 kt1 / 8 kt
Sichtweite///// m
Temperatur21 °C
Taupunkt14 °C
Feuchte61 %
QNH1021.3 hPa
QFE967.6 hPa
Wolken/////

Aerodrome Terminal Information Service (ATIS) Coburg

METAR
EDQC 210820Z AUTO VRB03KT //// ////// 21/14 Q1021=

Wetterverlauf

Notam

C0503/18 - COBURG INFO CHANGED TO 128.680 (8.33 KHZ). 28 FEB 12:22 2018 UNTIL PERM. CREATED:
28 FEB 12:22 2018

C0132/18 - DIRECTION FINDING STATION (VDF) COMPLETELY WITHDRAWN. 15 FEB 00:01 2018 UNTIL PERM. CREATED: 19 JAN 10:58 2018

Windvorhersage

Verkehrslandeplatz Coburg Brandensteinsebene
Tower
Zur Brandensteinsebene
96450 Coburg

 

Telefon +49 (0) 95 61 / 9 20 98
Telefax +49 (0) 95 61 / 9 20 06
EMail tower@vlp-coburg.de